Flag for France Weather past 2 weeks in Amiens, France

Now
45 °F

Passing clouds.


Feels Like: 38 °F
Forecast: 38 / 54 °F
Wind: 13 mph from North

Location: Beauvais Airport

Current Time: Apr 27, 2015 at 8:21:11 AM

Latest Report: Apr 27, 2015 at 8:00 AM


Visibility: N/A

Pressure: 29.74 "Hg

Humidity: 87%

Dew point: 41 °F

Location of AmiensLocation

Historic Weather in Amiens — Graph

°F

Amiens temperature yesterday

Maximum temperature yesterday: 59 °F (at 11:00 AM)
Minimum temperature yesterday: 52 °F (at 12:30 AM)
Average temperature yesterday: 55 °F

Past Weeks' High & Low Weather Summary

 TemperatureHumidityPressure
High77 °F (Apr 15, 2:00 PM)100% (Apr 12, 7:30 AM)30.51 "Hg (Apr 12, 7:30 AM)
Low30 °F (Apr 12, 7:30 AM)30% (Apr 15, 3:30 PM)29.65 "Hg (Apr 26, 6:30 PM)
Average54 °F72%30.11 "Hg
* Reported Apr 12 7:00 AM — Apr 27 7:00 AM, Amiens, Weather by CustomWeather, © 2015

Note: Actual official high and low records may vary slightly from our data, if they occured in-between our weather recording intervals... More about our weather records

Advertising

Amiens weather history for previous 24 hours

 ConditionsComfort  
Time TempWeatherWind HumidityBarometerVisibility
7:00 AM
Mon, Apr 27
46 °FOvercast.13 mph87%29.71 "HgN/A
6:30 AM46 °FOvercast.15 mph87%29.71 "HgN/A
6:00 AM46 °FOvercast.15 mph93%29.71 "HgN/A
5:30 AM46 °FMostly cloudy.14 mph93%29.71 "HgN/A
5:00 AM46 °FOvercast.12 mph93%29.71 "HgN/A
4:30 AM48 °FLow clouds.10 mph87%29.68 "Hg6 mi
4:00 AM48 °FLow clouds.12 mph94%29.68 "Hg5 mi
3:30 AM48 °FLow clouds.13 mph94%29.68 "Hg6 mi
3:00 AM48 °FMostly cloudy.12 mph94%29.68 "HgN/A
2:30 AM48 °FLow clouds.13 mph100%29.68 "HgN/A
2:00 AM50 °FLow clouds.13 mph94%29.68 "Hg4 mi
1:30 AM52 °FDrizzle. Fog.12 mph94%29.68 "Hg1 mi
1:00 AM52 °FDrizzle. Fog.9 mph94%29.68 "Hg2 mi
12:30 AM52 °FDrizzle. Fog.8 mph94%29.68 "Hg3 mi
12:00 AM52 °FMostly cloudy.10 mph94%29.68 "HgN/A
11:30 PM
Sun, Apr 26
54 °FFog.10 mph88%29.68 "Hg3 mi
11:00 PM54 °FPartly cloudy.6 mph88%29.68 "HgN/A
10:30 PM54 °FMostly cloudy.7 mph94%29.68 "HgN/A
10:00 PM54 °FOvercast.7 mph94%29.68 "HgN/A
9:30 PM54 °FMostly cloudy.6 mph94%29.68 "HgN/A
9:00 PM54 °FPartly sunny.5 mph94%29.68 "HgN/A
8:30 PM55 °FCloudy.6 mph88%29.68 "HgN/A
8:00 PM55 °FBroken clouds.7 mph88%29.65 "HgN/A
7:30 PM55 °FBroken clouds.10 mph88%29.65 "HgN/A
7:00 PM55 °FLight rain. Broken clouds.8 mph94%29.65 "HgN/A
6:30 PM55 °FLight rain. More clouds than sun.6 mph94%29.65 "HgN/A
6:00 PM57 °FLight rain. Broken clouds.3 mph88%29.68 "HgN/A
5:30 PM55 °FLight rain. Mostly cloudy.No wind88%29.68 "HgN/A
5:00 PM57 °FLight rain. Mostly cloudy.2 mph88%29.68 "Hg6 mi
4:30 PM57 °FLight rain. Partly sunny.2 mph82%29.68 "HgN/A
4:00 PM57 °FLight rain. More clouds than sun.2 mph82%29.68 "HgN/A
3:30 PM57 °FLight rain. More clouds than sun.2 mph88%29.71 "HgN/A
3:00 PM59 °FDrizzle. Mostly cloudy.2 mph82%29.71 "HgN/A
2:30 PM59 °FBroken clouds.No wind82%29.71 "HgN/A
2:00 PM57 °FLight rain. More clouds than sun.No wind88%29.71 "HgN/A
1:30 PM57 °FMostly cloudy.7 mph88%29.74 "HgN/A
1:00 PM59 °FLight rain. Broken clouds.3 mph82%29.74 "HgN/A
12:30 PM59 °FBroken clouds.5 mph77%29.74 "HgN/A
12:00 PM59 °FBroken clouds.5 mph77%29.74 "HgN/A
11:30 AM59 °FBroken clouds.2 mph82%29.74 "HgN/A
11:00 AM59 °FPartly sunny.5 mph82%29.74 "HgN/A
10:30 AM57 °FPartly sunny.5 mph88%29.74 "HgN/A
10:00 AM57 °FPartly sunny.3 mph82%29.74 "HgN/A
9:30 AM55 °FPartly sunny.6 mph88%29.74 "HgN/A
9:00 AM54 °FLow clouds.6 mph94%29.77 "HgN/A
8:30 AM54 °FPartly sunny.6 mph94%29.74 "HgN/A
8:00 AM54 °FPartly sunny.5 mph94%29.74 "HgN/A
Weather by CustomWeather, © 2015

See weather overviewHow to use our weather pages